Flag for U.S.A. Weather past 2 weeks in Toledo, Ohio, U.S.A.

Now
41 °F

Partly sunny.


Feels Like: 35 °F
Forecast: 37 / 54 °F
Wind: 10 mph from Northwest

Location: Toledo Suburban Airport


UV Index: 5 (Moderate)

Visibility: 10 mi


Pressure: 30.09 "Hg

Humidity: 66%

Dew point: 30 °F

Location of ToledoLocation

Historic Weather in Toledo

°F

Toledo temperature yesterday

Maximum temperature yesterday: 63 °F (at 12:15 AM)
Minimum temperature yesterday: 43 °F (at 11:35 PM)
Average temperature yesterday: 56 °F

Past Weeks' High & Low Weather Summary

 TemperatureHumidityPressure
High77 °F (Apr 13, 2:55 PM)94% (Apr 11, 8:55 AM)30.45 "Hg (Apr 11, 8:55 AM)
Low23 °F (Apr 16, 3:35 AM)20% (Apr 20, 2:35 PM)29.47 "Hg (Apr 14, 6:35 AM)
Average52 °F57%30.03 "Hg
* Reported Apr 8 9:15 AM — Apr 23 9:55 AM, Toledo, Weather by CustomWeather, © 2014

Note: Actual official high and low records may vary slightly from our data, if they occured in-between our weather recording intervals... More about our weather records

Advertising

Historic Weather Conditions — Data for Previous 24 hours

 ConditionsComfort  
Time TempWeatherWind HumidityBarometerVisibility
9:55 AM
Apr 23
41 °FPartly sunny.10 mph66%30.09 "Hg10 mi
9:35 AM39 °FOvercast.8 mph70%30.10 "Hg10 mi
9:15 AM39 °FOvercast.9 mph70%30.09 "Hg10 mi
8:55 AM37 °FOvercast.9 mph75%30.08 "Hg10 mi
8:35 AM37 °FOvercast.9 mph75%30.08 "Hg10 mi
7:55 AM37 °FOvercast.12 mph75%30.07 "Hg10 mi
7:35 AM37 °FOvercast.10 mph75%30.07 "Hg10 mi
6:55 AM37 °FOvercast.12 mph75%30.04 "Hg10 mi
6:35 AM37 °FOvercast.14 mph75%30.03 "Hg10 mi
6:15 AM37 °FOvercast.8 mph75%30.03 "Hg10 mi
5:55 AM36 °FOvercast.7 mph81%30.02 "Hg10 mi
5:35 AM36 °FPassing clouds.7 mph81%30.01 "Hg10 mi
5:15 AM36 °FPassing clouds.5 mph81%30.00 "Hg10 mi
4:55 AM36 °FClear.5 mph81%30.00 "Hg10 mi
4:35 AM36 °FClear.5 mph81%30.00 "Hg10 mi
4:15 AM36 °FClear.6 mph81%29.99 "Hg10 mi
3:55 AM36 °FClear.6 mph81%29.98 "Hg10 mi
3:35 AM37 °FClear.7 mph75%29.98 "Hg10 mi
3:15 AM37 °FClear.8 mph75%29.97 "Hg10 mi
2:55 AM37 °FClear.8 mph75%29.98 "Hg10 mi
2:35 AM37 °FClear.8 mph70%29.98 "Hg10 mi
2:15 AM39 °FClear.7 mph65%29.97 "Hg10 mi
1:55 AM39 °FClear.8 mph65%29.97 "Hg10 mi
1:35 AM41 °FClear.10 mph66%29.98 "Hg10 mi
1:15 AM41 °FClear.7 mph66%29.97 "Hg10 mi
12:55 AM41 °FClear.8 mph66%29.96 "Hg10 mi
12:35 AM41 °FClear.7 mph66%29.96 "Hg10 mi
12:15 AM43 °FClear.7 mph61%29.95 "Hg10 mi
11:55 PM
Apr 22
43 °FClear.8 mph61%29.95 "Hg10 mi
11:35 PM43 °FClear.6 mph61%29.95 "Hg10 mi
10:55 PM45 °FPassing clouds.10 mph57%29.95 "Hg10 mi
10:35 PM45 °FOvercast.14 mph57%29.95 "Hg10 mi
9:55 PM46 °FOvercast.10 mph57%29.94 "Hg10 mi
9:35 PM46 °FOvercast.14 mph57%29.93 "Hg10 mi
9:15 PM46 °FOvercast.10 mph57%29.92 "Hg10 mi
8:55 PM46 °FOvercast.12 mph57%29.91 "Hg10 mi
8:35 PM46 °FOvercast.15 mph57%29.91 "Hg10 mi
8:15 PM48 °FOvercast.13 mph54%29.90 "Hg10 mi
7:55 PM48 °FOvercast.15 mph54%29.89 "Hg10 mi
7:35 PM50 °FOvercast.16 mph50%29.88 "Hg10 mi
7:15 PM52 °FOvercast.16 mph47%29.87 "Hg10 mi
6:55 PM52 °FOvercast.14 mph47%29.86 "Hg10 mi
6:35 PM52 °FOvercast.12 mph47%29.85 "Hg10 mi
6:15 PM54 °FOvercast.16 mph44%29.84 "Hg10 mi
5:55 PM54 °FOvercast.16 mph44%29.83 "Hg10 mi
5:15 PM54 °FOvercast.13 mph44%29.82 "Hg10 mi
4:55 PM55 °FOvercast.13 mph41%29.81 "Hg10 mi
4:35 PM57 °FPartly sunny.13 mph39%29.81 "Hg10 mi
4:15 PM55 °FScattered clouds.15 mph41%29.80 "Hg10 mi
3:55 PM57 °FScattered clouds.14 mph39%29.80 "Hg10 mi
3:35 PM57 °FScattered clouds.13 mph39%29.80 "Hg10 mi
3:15 PM57 °FScattered clouds.13 mph39%29.79 "Hg10 mi
2:55 PM57 °FPartly sunny.13 mph39%29.79 "Hg10 mi
2:35 PM59 °FScattered clouds.12 mph39%29.79 "Hg10 mi
2:15 PM59 °FSunny.15 mph36%29.78 "Hg10 mi
1:55 PM59 °FSunny.14 mph39%29.78 "Hg10 mi
1:35 PM57 °FSunny.14 mph39%29.78 "Hg10 mi
1:15 PM57 °FSunny.12 mph41%29.78 "Hg10 mi
12:55 PM57 °FSunny.15 mph41%29.79 "Hg10 mi
12:35 PM57 °FSunny.15 mph41%29.79 "Hg10 mi
12:15 PM57 °FSunny.14 mph44%29.78 "Hg10 mi
11:55 AM55 °FSunny.14 mph47%29.78 "Hg10 mi
11:35 AM55 °FScattered clouds.15 mph55%29.78 "Hg10 mi
11:15 AM55 °FScattered clouds.13 mph59%29.78 "Hg10 mi
Weather by CustomWeather, © 2014

See weather overview